Year,Month,Day,Hour,Minute,Value (Times are PST for temperature in C)
2009,07,30,00,00,24.50
2009,07,30,00,01,24.50
2009,07,30,00,02,24.40
2009,07,30,00,03,24.30
2009,07,30,00,04,24.20
2009,07,30,00,05,24.10
2009,07,30,00,06,24.00
2009,07,30,00,07,23.90
2009,07,30,00,08,23.70
2009,07,30,00,09,23.50
2009,07,30,00,10,23.30
2009,07,30,00,11,22.90
2009,07,30,00,12,22.60
2009,07,30,00,13,22.30
2009,07,30,00,14,22.00
2009,07,30,00,15,21.80
2009,07,30,00,16,21.60
2009,07,30,00,17,21.40
2009,07,30,00,18,21.30
2009,07,30,00,19,21.10
2009,07,30,00,20,21.00
2009,07,30,00,21,20.80
2009,07,30,00,22,20.70
2009,07,30,00,23,20.60
2009,07,30,00,24,20.50
2009,07,30,00,25,20.40
2009,07,30,00,26,20.30
2009,07,30,00,27,20.30
2009,07,30,00,28,20.20
2009,07,30,00,29,20.20
2009,07,30,00,30,20.10
2009,07,30,00,31,20.10
2009,07,30,00,32,20.10
2009,07,30,00,33,20.10
2009,07,30,00,34,20.00
2009,07,30,00,35,20.00
2009,07,30,00,36,20.00
2009,07,30,00,37,20.00
2009,07,30,00,38,20.00
2009,07,30,00,39,20.00
2009,07,30,00,40,20.00
2009,07,30,00,41,20.10
2009,07,30,00,42,20.10
2009,07,30,00,43,20.10
2009,07,30,00,44,20.10
2009,07,30,00,45,20.10
2009,07,30,00,46,20.10
2009,07,30,00,47,20.20
2009,07,30,00,48,20.20
2009,07,30,00,49,20.20
2009,07,30,00,50,20.20
2009,07,30,00,51,20.20
2009,07,30,00,52,20.20
2009,07,30,00,53,20.20
2009,07,30,00,54,20.20
2009,07,30,00,55,20.20
2009,07,30,00,56,20.10
2009,07,30,00,57,20.10
2009,07,30,00,58,20.10
2009,07,30,00,59,20.10
2009,07,30,01,00,20.00
2009,07,30,01,01,20.00
2009,07,30,01,02,20.00
2009,07,30,01,03,20.00
2009,07,30,01,04,20.00
2009,07,30,01,05,20.00
2009,07,30,01,06,20.00
2009,07,30,01,07,20.00
2009,07,30,01,08,20.00
2009,07,30,01,09,20.10
2009,07,30,01,10,20.10
2009,07,30,01,11,20.10
2009,07,30,01,12,20.20
2009,07,30,01,13,20.20
2009,07,30,01,14,20.20
2009,07,30,01,15,20.20
2009,07,30,01,16,20.30
2009,07,30,01,17,20.30
2009,07,30,01,18,20.30
2009,07,30,01,19,20.40
2009,07,30,01,20,20.40
2009,07,30,01,21,20.50
2009,07,30,01,22,20.50
2009,07,30,01,23,20.50
2009,07,30,01,24,20.50
2009,07,30,01,25,20.50
2009,07,30,01,26,20.50
2009,07,30,01,27,20.40
2009,07,30,01,28,20.40
2009,07,30,01,29,20.40
2009,07,30,01,30,20.30
2009,07,30,01,31,20.30
2009,07,30,01,32,20.30
2009,07,30,01,33,20.20
2009,07,30,01,34,20.20
2009,07,30,01,35,20.10
2009,07,30,01,36,20.10
2009,07,30,01,37,20.10
2009,07,30,01,38,20.00
2009,07,30,01,39,20.00
2009,07,30,01,40,20.00
2009,07,30,01,41,19.90
2009,07,30,01,42,19.90
2009,07,30,01,43,19.90
2009,07,30,01,44,19.90
2009,07,30,01,45,19.90
2009,07,30,01,46,20.00
2009,07,30,01,47,20.00
2009,07,30,01,48,20.00
2009,07,30,01,49,20.00
2009,07,30,01,50,20.00
2009,07,30,01,51,20.00
2009,07,30,01,52,20.00
2009,07,30,01,53,20.10
2009,07,30,01,54,20.10
2009,07,30,01,55,20.10
2009,07,30,01,56,20.10
2009,07,30,01,57,20.10
2009,07,30,01,58,20.20
2009,07,30,01,59,20.20
2009,07,30,02,00,20.20
2009,07,30,02,01,20.20
2009,07,30,02,02,20.20
2009,07,30,02,03,20.20
2009,07,30,02,04,20.30
2009,07,30,02,05,20.30
2009,07,30,02,06,20.30
2009,07,30,02,07,20.30
2009,07,30,02,08,20.30
2009,07,30,02,09,20.30
2009,07,30,02,10,20.30
2009,07,30,02,11,20.30
2009,07,30,02,12,20.30
2009,07,30,02,13,20.30
2009,07,30,02,14,20.30
2009,07,30,02,15,20.30
2009,07,30,02,16,20.30
2009,07,30,02,17,20.30
2009,07,30,02,18,20.30
2009,07,30,02,19,20.30
2009,07,30,02,20,20.20
2009,07,30,02,21,20.20
2009,07,30,02,22,20.20
2009,07,30,02,23,20.20
2009,07,30,02,24,20.20
2009,07,30,02,25,20.20
2009,07,30,02,26,20.20
2009,07,30,02,27,20.20
2009,07,30,02,28,20.20
2009,07,30,02,29,20.20
2009,07,30,02,30,20.10
2009,07,30,02,31,20.10
2009,07,30,02,32,20.10
2009,07,30,02,33,20.10
2009,07,30,02,34,20.10
2009,07,30,02,35,20.10
2009,07,30,02,36,20.10
2009,07,30,02,37,20.10
2009,07,30,02,38,20.00
2009,07,30,02,39,20.00
2009,07,30,02,40,20.00
2009,07,30,02,41,20.00
2009,07,30,02,42,20.00
2009,07,30,02,43,20.00
2009,07,30,02,44,20.00
2009,07,30,02,45,20.00
2009,07,30,02,46,20.00
2009,07,30,02,47,20.00
2009,07,30,02,48,20.00
2009,07,30,02,49,20.00
2009,07,30,02,50,20.00
2009,07,30,02,51,20.00
2009,07,30,02,52,20.00
2009,07,30,02,53,20.00
2009,07,30,02,54,19.90
2009,07,30,02,55,20.00
2009,07,30,02,56,20.00
2009,07,30,02,57,20.00
2009,07,30,02,58,20.00
2009,07,30,02,59,20.00
2009,07,30,03,00,20.00
2009,07,30,03,01,20.10
2009,07,30,03,02,20.10
2009,07,30,03,03,20.10
2009,07,30,03,04,20.10
2009,07,30,03,05,20.10
2009,07,30,03,06,20.10
2009,07,30,03,07,20.10
2009,07,30,03,08,20.10
2009,07,30,03,09,20.10
2009,07,30,03,10,20.10
2009,07,30,03,11,20.10
2009,07,30,03,12,20.00
2009,07,30,03,13,20.00
2009,07,30,03,14,20.00
2009,07,30,03,15,20.00
2009,07,30,03,16,20.00
2009,07,30,03,17,20.00
2009,07,30,03,18,20.00
2009,07,30,03,19,19.90
2009,07,30,03,20,19.90
2009,07,30,03,21,19.90
2009,07,30,03,22,19.90
2009,07,30,03,23,19.80
2009,07,30,03,24,19.80
2009,07,30,03,25,19.80
2009,07,30,03,26,19.70
2009,07,30,03,27,19.70
2009,07,30,03,28,19.60
2009,07,30,03,29,19.60
2009,07,30,03,30,19.60
2009,07,30,03,31,19.60
2009,07,30,03,32,19.50
2009,07,30,03,33,19.50
2009,07,30,03,34,19.50
2009,07,30,03,35,19.50
2009,07,30,03,36,19.50
2009,07,30,03,37,19.50
2009,07,30,03,38,19.50
2009,07,30,03,39,19.50
2009,07,30,03,40,19.50
2009,07,30,03,41,19.50
2009,07,30,03,42,19.50
2009,07,30,03,43,19.50
2009,07,30,03,44,19.50
2009,07,30,03,45,19.50
2009,07,30,03,46,19.50
2009,07,30,03,47,19.50
2009,07,30,03,48,19.50
2009,07,30,03,49,19.50
2009,07,30,03,50,19.50
2009,07,30,03,51,19.50
2009,07,30,03,52,19.50
2009,07,30,03,53,19.50
2009,07,30,03,54,19.50
2009,07,30,03,55,19.60
2009,07,30,03,56,19.60
2009,07,30,03,57,19.60
2009,07,30,03,58,19.60
2009,07,30,03,59,19.60
2009,07,30,04,00,19.60
2009,07,30,04,01,19.60
2009,07,30,04,02,19.60
2009,07,30,04,03,19.60
2009,07,30,04,04,19.60
2009,07,30,04,05,19.50
2009,07,30,04,06,19.50
2009,07,30,04,07,19.50
2009,07,30,04,08,19.50
2009,07,30,04,09,19.50
2009,07,30,04,10,19.50
2009,07,30,04,11,19.40
2009,07,30,04,12,19.40
2009,07,30,04,13,19.40
2009,07,30,04,14,19.40
2009,07,30,04,15,19.40
2009,07,30,04,16,19.40
2009,07,30,04,17,19.40
2009,07,30,04,18,19.40
2009,07,30,04,19,19.40
2009,07,30,04,20,19.30
2009,07,30,04,21,19.30
2009,07,30,04,22,19.30
2009,07,30,04,23,19.30
2009,07,30,04,24,19.30
2009,07,30,04,25,19.30
2009,07,30,04,26,19.30
2009,07,30,04,27,19.30
2009,07,30,04,28,19.20
2009,07,30,04,29,19.20
2009,07,30,04,30,19.20
2009,07,30,04,31,19.20
2009,07,30,04,32,19.20
2009,07,30,04,33,19.20
2009,07,30,04,34,19.20
2009,07,30,04,35,19.20
2009,07,30,04,36,19.10
2009,07,30,04,37,19.10
2009,07,30,04,38,19.10
2009,07,30,04,39,19.10
2009,07,30,04,40,19.10
2009,07,30,04,41,19.10
2009,07,30,04,42,19.10
2009,07,30,04,43,19.10
2009,07,30,04,44,19.10
2009,07,30,04,45,19.10
2009,07,30,04,46,19.10
2009,07,30,04,47,19.00
2009,07,30,04,48,19.10
2009,07,30,04,49,19.00
2009,07,30,04,50,19.00
2009,07,30,04,51,19.00
2009,07,30,04,52,19.00
2009,07,30,04,53,19.00
2009,07,30,04,54,19.00
2009,07,30,04,55,19.00
2009,07,30,04,56,19.00
2009,07,30,04,57,19.10
2009,07,30,04,58,19.10
2009,07,30,04,59,19.10
2009,07,30,05,00,19.10
2009,07,30,05,01,19.00
2009,07,30,05,02,19.00
2009,07,30,05,03,19.00
2009,07,30,05,04,19.00
2009,07,30,05,05,19.00
2009,07,30,05,06,19.00
2009,07,30,05,07,19.00
2009,07,30,05,08,19.00
2009,07,30,05,09,18.90
2009,07,30,05,10,18.90
2009,07,30,05,11,18.90
2009,07,30,05,12,18.90
2009,07,30,05,13,18.90
2009,07,30,05,14,18.90
2009,07,30,05,15,18.90
2009,07,30,05,16,18.90
2009,07,30,05,17,18.90
2009,07,30,05,18,18.90
2009,07,30,05,19,18.90
2009,07,30,05,20,18.80
2009,07,30,05,21,18.80
2009,07,30,05,22,18.80
2009,07,30,05,23,18.80
2009,07,30,05,24,18.80
2009,07,30,05,25,18.80
2009,07,30,05,26,18.80
2009,07,30,05,27,18.80
2009,07,30,05,28,18.80
2009,07,30,05,29,18.70
2009,07,30,05,30,18.70
2009,07,30,05,31,18.70
2009,07,30,05,32,18.70
2009,07,30,05,33,18.70
2009,07,30,05,34,18.70
2009,07,30,05,35,18.70
2009,07,30,05,36,18.80
2009,07,30,05,37,18.80
2009,07,30,05,38,18.80
2009,07,30,05,39,18.80
2009,07,30,05,40,18.80
2009,07,30,05,41,18.80
2009,07,30,05,42,18.80
2009,07,30,05,43,18.80
2009,07,30,05,44,18.80
2009,07,30,05,45,18.80
2009,07,30,05,46,18.70
2009,07,30,05,47,18.70
2009,07,30,05,48,18.70
2009,07,30,05,49,18.70
2009,07,30,05,50,18.70
2009,07,30,05,51,18.60
2009,07,30,05,52,18.60
2009,07,30,05,53,18.60
2009,07,30,05,54,18.60
2009,07,30,05,55,18.60
2009,07,30,05,56,18.60
2009,07,30,05,57,18.60
2009,07,30,05,58,18.60
2009,07,30,05,59,18.50
2009,07,30,06,00,18.50
2009,07,30,06,01,18.50
2009,07,30,06,02,18.50
2009,07,30,06,03,18.50
2009,07,30,06,04,18.50
2009,07,30,06,05,18.50
2009,07,30,06,06,18.50
2009,07,30,06,07,18.50
2009,07,30,06,08,18.50
2009,07,30,06,09,18.50
2009,07,30,06,10,18.50
2009,07,30,06,11,18.50
2009,07,30,06,12,18.50
2009,07,30,06,13,18.50
2009,07,30,06,14,18.50
2009,07,30,06,15,18.50
2009,07,30,06,16,18.50
2009,07,30,06,17,18.50
2009,07,30,06,18,18.50
2009,07,30,06,19,18.50
2009,07,30,06,20,18.50
2009,07,30,06,21,18.50
2009,07,30,06,22,18.50
2009,07,30,06,23,18.50
2009,07,30,06,24,18.50
2009,07,30,06,25,18.50
2009,07,30,06,26,18.50
2009,07,30,06,27,18.60
2009,07,30,06,28,18.60
2009,07,30,06,29,18.60
2009,07,30,06,30,18.60
2009,07,30,06,31,18.60
2009,07,30,06,32,18.60
2009,07,30,06,33,18.60
2009,07,30,06,34,18.60
2009,07,30,06,35,18.60
2009,07,30,06,36,18.60
2009,07,30,06,37,18.60
2009,07,30,06,38,18.70
2009,07,30,06,39,18.70
2009,07,30,06,40,18.70
2009,07,30,06,41,18.80
2009,07,30,06,42,18.80
2009,07,30,06,43,18.80
2009,07,30,06,44,18.90
2009,07,30,06,45,18.90
2009,07,30,06,46,18.90
2009,07,30,06,47,18.90
2009,07,30,06,48,19.00
2009,07,30,06,49,19.00
2009,07,30,06,50,19.00
2009,07,30,06,51,19.10
2009,07,30,06,52,19.10
2009,07,30,06,53,19.10
2009,07,30,06,54,19.10
2009,07,30,06,55,19.20
2009,07,30,06,56,19.20
2009,07,30,06,57,19.20
2009,07,30,06,58,19.30
2009,07,30,06,59,19.30
2009,07,30,07,00,19.30
2009,07,30,07,01,19.40
2009,07,30,07,02,19.40
2009,07,30,07,03,19.50
2009,07,30,07,04,19.50
2009,07,30,07,05,19.60
2009,07,30,07,06,19.60
2009,07,30,07,07,19.70
2009,07,30,07,08,19.70
2009,07,30,07,09,19.70
2009,07,30,07,10,19.80
2009,07,30,07,11,19.80
2009,07,30,07,12,19.80
2009,07,30,07,13,19.80
2009,07,30,07,14,19.90
2009,07,30,07,15,19.90
2009,07,30,07,16,19.90
2009,07,30,07,17,20.00
2009,07,30,07,18,20.00
2009,07,30,07,19,20.10
2009,07,30,07,20,20.10
2009,07,30,07,21,20.20
2009,07,30,07,22,20.20
2009,07,30,07,23,20.30
2009,07,30,07,24,20.30
2009,07,30,07,25,20.40
2009,07,30,07,26,20.40
2009,07,30,07,27,20.40
2009,07,30,07,28,20.30
2009,07,30,07,29,20.30
2009,07,30,07,30,20.30
2009,07,30,07,31,20.30
2009,07,30,07,32,20.30
2009,07,30,07,33,20.30
2009,07,30,07,34,20.30
2009,07,30,07,35,20.30
2009,07,30,07,36,20.30
2009,07,30,07,37,20.40
2009,07,30,07,38,20.50
2009,07,30,07,39,20.50
2009,07,30,07,40,20.60
2009,07,30,07,41,20.70
2009,07,30,07,42,20.70
2009,07,30,07,43,20.80
2009,07,30,07,44,20.90
2009,07,30,07,45,21.00
2009,07,30,07,46,21.10
2009,07,30,07,47,21.20
2009,07,30,07,48,21.30
2009,07,30,07,49,21.30
2009,07,30,07,50,21.40
2009,07,30,07,51,21.50
2009,07,30,07,52,21.60
2009,07,30,07,53,21.70
2009,07,30,07,54,21.80
2009,07,30,07,55,21.80
2009,07,30,07,56,21.80
2009,07,30,07,57,21.80
2009,07,30,07,58,21.80
2009,07,30,07,59,21.70
2009,07,30,08,00,21.80
2009,07,30,08,01,21.80
2009,07,30,08,02,21.80
2009,07,30,08,03,21.80
2009,07,30,08,04,21.80
2009,07,30,08,05,21.80
2009,07,30,08,06,21.80
2009,07,30,08,07,21.80
2009,07,30,08,08,21.80
2009,07,30,08,09,21.90
2009,07,30,08,10,21.90
2009,07,30,08,11,22.00
2009,07,30,08,12,22.10
2009,07,30,08,13,22.10
2009,07,30,08,14,22.20
2009,07,30,08,15,22.20
2009,07,30,08,16,22.30
2009,07,30,08,17,22.40
2009,07,30,08,18,22.40
2009,07,30,08,19,22.50
2009,07,30,08,20,22.50
2009,07,30,08,21,22.60
2009,07,30,08,22,22.60
2009,07,30,08,23,22.60
2009,07,30,08,24,22.60
2009,07,30,08,25,22.60
2009,07,30,08,26,22.60
2009,07,30,08,27,22.60
2009,07,30,08,28,22.60
2009,07,30,08,29,22.60
2009,07,30,08,30,22.60
2009,07,30,08,31,22.60
2009,07,30,08,32,22.70
2009,07,30,08,33,22.70
2009,07,30,08,34,22.80
2009,07,30,08,35,22.90
2009,07,30,08,36,22.90
2009,07,30,08,37,23.00
2009,07,30,08,38,23.00
2009,07,30,08,39,23.10
2009,07,30,08,40,23.20
2009,07,30,08,41,23.20
2009,07,30,08,42,23.20
2009,07,30,08,43,23.30
2009,07,30,08,44,23.40
2009,07,30,08,45,23.50
2009,07,30,08,46,23.60
2009,07,30,08,47,23.80
2009,07,30,08,48,23.90
2009,07,30,08,49,24.00
2009,07,30,08,50,24.10
2009,07,30,08,51,24.00
2009,07,30,08,52,24.00
2009,07,30,08,53,24.00
2009,07,30,08,54,24.00
2009,07,30,08,55,24.10
2009,07,30,08,56,24.10
2009,07,30,08,57,24.20
2009,07,30,08,58,24.40
2009,07,30,08,59,24.50
2009,07,30,09,00,24.60
2009,07,30,09,01,24.60
2009,07,30,09,02,24.50
2009,07,30,09,03,24.50
2009,07,30,09,04,24.50
2009,07,30,09,05,24.50
2009,07,30,09,06,24.50
2009,07,30,09,07,24.50
2009,07,30,09,08,24.60
2009,07,30,09,09,24.50
2009,07,30,09,10,24.50
2009,07,30,09,11,24.40
2009,07,30,09,12,24.40
2009,07,30,09,13,24.40
2009,07,30,09,14,24.40
2009,07,30,09,15,24.40
2009,07,30,09,16,24.40
2009,07,30,09,17,24.40
2009,07,30,09,18,24.40
2009,07,30,09,19,24.50
2009,07,30,09,20,24.50
2009,07,30,09,21,24.50
2009,07,30,09,22,24.50
2009,07,30,09,23,24.40
2009,07,30,09,24,24.40
2009,07,30,09,25,24.30
2009,07,30,09,26,24.30
2009,07,30,09,27,24.40
2009,07,30,09,28,24.50
2009,07,30,09,29,24.50
2009,07,30,09,30,24.50
2009,07,30,09,31,24.50
2009,07,30,09,32,24.60
2009,07,30,09,33,24.60
2009,07,30,09,34,24.60
2009,07,30,09,35,24.70
2009,07,30,09,36,24.70
2009,07,30,09,37,24.70
2009,07,30,09,38,24.60
2009,07,30,09,39,24.60
2009,07,30,09,40,24.60
2009,07,30,09,41,24.70
2009,07,30,09,42,24.80
2009,07,30,09,43,24.80
2009,07,30,09,44,24.90
2009,07,30,09,45,24.90
2009,07,30,09,46,24.90
2009,07,30,09,47,24.90
2009,07,30,09,48,24.80
2009,07,30,09,49,24.70
2009,07,30,09,50,24.70
2009,07,30,09,51,24.70
2009,07,30,09,52,24.70
2009,07,30,09,53,24.70
2009,07,30,09,54,24.60
2009,07,30,09,55,24.50
2009,07,30,09,56,24.40
2009,07,30,09,57,24.20
2009,07,30,09,58,24.00
2009,07,30,09,59,23.90
2009,07,30,10,00,23.80
2009,07,30,10,01,23.60
2009,07,30,10,02,23.40
2009,07,30,10,03,23.20
2009,07,30,10,04,23.10
2009,07,30,10,05,23.10
2009,07,30,10,06,23.10
2009,07,30,10,07,23.10
2009,07,30,10,08,23.10
2009,07,30,10,09,23.20
2009,07,30,10,10,23.30
2009,07,30,10,11,23.30
2009,07,30,10,12,23.30
2009,07,30,10,13,23.20
2009,07,30,10,14,23.10
2009,07,30,10,15,23.00
2009,07,30,10,16,22.90
2009,07,30,10,17,22.90
2009,07,30,10,18,22.80
2009,07,30,10,19,22.80
2009,07,30,10,20,22.70
2009,07,30,10,21,22.50
2009,07,30,10,22,22.40
2009,07,30,10,23,22.40
2009,07,30,10,24,22.50
2009,07,30,10,25,22.50
2009,07,30,10,26,22.50
2009,07,30,10,27,22.40
2009,07,30,10,28,22.50
2009,07,30,10,29,22.50
2009,07,30,10,30,22.60
2009,07,30,10,31,22.60
2009,07,30,10,32,22.70
2009,07,30,10,33,22.70
2009,07,30,10,34,22.70
2009,07,30,10,35,22.70
2009,07,30,10,36,22.80
2009,07,30,10,37,22.80
2009,07,30,10,40,22.90
2009,07,30,10,41,22.90
2009,07,30,10,42,22.90
2009,07,30,10,43,22.90
2009,07,30,10,44,22.90
2009,07,30,10,45,22.80
2009,07,30,10,46,22.80
2009,07,30,10,47,22.90
2009,07,30,10,48,22.90
2009,07,30,10,49,22.90
2009,07,30,10,50,22.90
2009,07,30,10,51,22.90
2009,07,30,10,52,22.90
2009,07,30,10,53,23.00
2009,07,30,10,54,23.10
2009,07,30,10,55,23.30
2009,07,30,10,56,23.40
2009,07,30,10,57,23.40
2009,07,30,10,58,23.40
2009,07,30,10,59,23.40
2009,07,30,11,00,23.40
2009,07,30,11,01,23.50
2009,07,30,11,02,23.70
2009,07,30,11,03,23.70
2009,07,30,11,04,23.80
2009,07,30,11,05,23.80
2009,07,30,11,06,23.90
2009,07,30,11,07,24.00
2009,07,30,11,08,24.20
2009,07,30,11,09,24.30
2009,07,30,11,10,24.40
2009,07,30,11,11,24.50
2009,07,30,11,12,24.50
2009,07,30,11,13,24.50
2009,07,30,11,14,24.50
2009,07,30,11,15,24.40
2009,07,30,11,16,24.30
2009,07,30,11,17,24.30
2009,07,30,11,18,24.30
2009,07,30,11,19,24.30
2009,07,30,11,20,24.30
2009,07,30,11,21,24.40
2009,07,30,11,22,24.50
2009,07,30,11,23,24.50
2009,07,30,11,24,24.60
2009,07,30,11,25,24.50
2009,07,30,11,26,24.50
2009,07,30,11,27,24.60
2009,07,30,11,28,24.60
2009,07,30,11,29,24.60
2009,07,30,11,30,24.60
2009,07,30,11,31,24.60
2009,07,30,11,32,24.50
2009,07,30,11,33,24.50
2009,07,30,11,34,24.50
2009,07,30,11,35,24.50
2009,07,30,11,36,24.60
2009,07,30,11,37,24.60
2009,07,30,11,38,24.50
2009,07,30,11,39,24.40
2009,07,30,11,40,24.30
2009,07,30,11,41,24.30
2009,07,30,11,42,24.40
2009,07,30,11,43,24.40
2009,07,30,11,44,24.40
2009,07,30,11,45,24.30
2009,07,30,11,46,24.20
2009,07,30,11,47,24.20
2009,07,30,11,48,24.10
2009,07,30,11,49,24.10
2009,07,30,11,50,24.00
2009,07,30,11,51,24.00
2009,07,30,11,52,24.10
2009,07,30,11,53,24.20
2009,07,30,11,54,24.20
2009,07,30,11,55,24.20
2009,07,30,11,56,24.30
2009,07,30,11,57,24.30
2009,07,30,11,58,24.30
2009,07,30,11,59,24.30
2009,07,30,12,00,24.40
2009,07,30,12,01,24.50
2009,07,30,12,02,24.60
2009,07,30,12,03,24.70
2009,07,30,12,04,24.70
2009,07,30,12,05,24.80
2009,07,30,12,06,24.80
2009,07,30,12,07,24.90
2009,07,30,12,08,25.00
2009,07,30,12,09,25.00
2009,07,30,12,10,25.20
2009,07,30,12,11,25.40
2009,07,30,12,12,25.50
2009,07,30,12,13,25.50
2009,07,30,12,14,25.50
2009,07,30,12,15,25.40
2009,07,30,12,16,25.40
2009,07,30,12,17,25.30
2009,07,30,12,18,25.40
2009,07,30,12,19,25.40
2009,07,30,12,20,25.40
2009,07,30,12,21,25.50
2009,07,30,12,22,25.40
2009,07,30,12,23,25.40
2009,07,30,12,24,25.30
2009,07,30,12,25,25.20
2009,07,30,12,26,25.20
2009,07,30,12,27,25.20
2009,07,30,12,28,25.30
2009,07,30,12,29,25.40
2009,07,30,12,30,25.50
2009,07,30,12,31,25.60
2009,07,30,12,32,25.70
2009,07,30,12,33,25.80
2009,07,30,12,34,25.90
2009,07,30,12,35,26.10
2009,07,30,12,36,26.30
2009,07,30,12,37,26.50
2009,07,30,12,38,26.60
2009,07,30,12,39,26.80
2009,07,30,12,40,26.80
2009,07,30,12,41,26.80
2009,07,30,12,42,26.80
2009,07,30,12,43,26.70
2009,07,30,12,44,26.70
2009,07,30,12,45,26.80
2009,07,30,12,46,27.10
2009,07,30,12,47,27.30
2009,07,30,12,48,27.40
2009,07,30,12,49,27.60
2009,07,30,12,50,27.70
2009,07,30,12,51,27.80
2009,07,30,12,52,27.80
2009,07,30,12,53,27.80
2009,07,30,12,54,27.80
2009,07,30,12,55,27.90
2009,07,30,12,56,28.00
2009,07,30,12,57,28.10
2009,07,30,12,58,28.10
2009,07,30,12,59,28.10
2009,07,30,13,00,28.10
2009,07,30,13,01,28.30
2009,07,30,13,02,28.40
2009,07,30,13,03,28.40
2009,07,30,13,04,28.40
2009,07,30,13,05,28.30
2009,07,30,13,06,28.30
2009,07,30,13,07,28.30
2009,07,30,13,08,28.30
2009,07,30,13,09,28.30
2009,07,30,13,10,28.30
2009,07,30,13,11,28.20
2009,07,30,13,12,28.20
2009,07,30,13,13,28.20
2009,07,30,13,14,28.30
2009,07,30,13,15,28.20
2009,07,30,13,16,28.20
2009,07,30,13,17,28.30
2009,07,30,13,18,28.40
2009,07,30,13,19,28.40
2009,07,30,13,20,28.30
2009,07,30,13,21,28.30
2009,07,30,13,22,28.20
2009,07,30,13,23,28.10
2009,07,30,13,24,28.10
2009,07,30,13,25,28.10
2009,07,30,13,26,28.10
2009,07,30,13,27,28.10
2009,07,30,13,28,28.10
2009,07,30,13,29,28.10
2009,07,30,13,30,28.20
2009,07,30,13,31,28.20
2009,07,30,13,32,28.30
2009,07,30,13,33,28.30
2009,07,30,13,34,28.30
2009,07,30,13,35,28.20
2009,07,30,13,36,28.10
2009,07,30,13,37,28.10
2009,07,30,13,38,28.00
2009,07,30,13,39,28.00
2009,07,30,13,40,27.90
2009,07,30,13,41,27.70
2009,07,30,13,42,27.60
2009,07,30,13,43,27.50
2009,07,30,13,44,27.40
2009,07,30,13,45,27.30
2009,07,30,13,46,27.20
2009,07,30,13,47,27.20
2009,07,30,13,48,27.10
2009,07,30,13,49,27.00
2009,07,30,13,50,26.70
2009,07,30,13,51,26.50
2009,07,30,13,52,26.40
2009,07,30,13,53,26.30
2009,07,30,13,54,26.20
2009,07,30,13,55,26.20
2009,07,30,13,56,26.20
2009,07,30,13,57,26.30
2009,07,30,13,58,26.40
2009,07,30,13,59,26.40
2009,07,30,14,00,26.30
2009,07,30,14,01,26.10
2009,07,30,14,02,26.00
2009,07,30,14,03,25.80
2009,07,30,14,04,25.70
2009,07,30,14,05,25.60
2009,07,30,14,06,25.60
2009,07,30,14,07,25.60
2009,07,30,14,08,25.60
2009,07,30,14,09,25.70
2009,07,30,14,10,25.70
2009,07,30,14,11,25.60
2009,07,30,14,12,25.60
2009,07,30,14,13,25.60
2009,07,30,14,14,25.60
2009,07,30,14,15,25.60
2009,07,30,14,16,25.60
2009,07,30,14,17,25.60
2009,07,30,14,18,25.60
2009,07,30,14,19,25.70
2009,07,30,14,20,25.70
2009,07,30,14,21,25.80
2009,07,30,14,22,25.80
2009,07,30,14,23,25.80
2009,07,30,14,24,25.90
2009,07,30,14,25,25.90
2009,07,30,14,26,26.00
2009,07,30,14,27,26.10
2009,07,30,14,28,26.10
2009,07,30,14,29,26.20
2009,07,30,14,30,26.20
2009,07,30,14,31,26.20
2009,07,30,14,32,26.40
2009,07,30,14,33,26.50
2009,07,30,14,34,26.60
2009,07,30,14,35,26.70
2009,07,30,14,36,26.60
2009,07,30,14,37,26.60
2009,07,30,14,38,26.60
2009,07,30,14,39,26.70
2009,07,30,14,40,26.70
2009,07,30,14,41,26.70
2009,07,30,14,42,26.80
2009,07,30,14,43,27.00
2009,07,30,14,44,27.10
2009,07,30,14,45,27.30
2009,07,30,14,46,27.40
2009,07,30,14,47,27.50
2009,07,30,14,48,27.70
2009,07,30,14,49,27.80
2009,07,30,14,50,27.80
2009,07,30,14,51,27.70
2009,07,30,14,52,27.70
2009,07,30,14,53,27.70
2009,07,30,14,54,27.70
2009,07,30,14,55,27.80
2009,07,30,14,56,27.70
2009,07,30,14,57,27.70
2009,07,30,14,58,27.70
2009,07,30,14,59,27.70
2009,07,30,15,00,27.60
2009,07,30,15,01,27.60
2009,07,30,15,02,27.60
2009,07,30,15,03,27.70
2009,07,30,15,04,27.80
2009,07,30,15,05,27.90
2009,07,30,15,06,27.90
2009,07,30,15,07,27.90
2009,07,30,15,08,27.90
2009,07,30,15,09,27.90
2009,07,30,15,10,27.80
2009,07,30,15,11,27.80
2009,07,30,15,12,27.80
2009,07,30,15,13,27.80
2009,07,30,15,14,27.80
2009,07,30,15,15,27.80
2009,07,30,15,16,27.90
2009,07,30,15,17,28.00
2009,07,30,15,18,28.00
2009,07,30,15,19,28.10
2009,07,30,15,20,28.00
2009,07,30,15,21,27.90
2009,07,30,15,22,27.90
2009,07,30,15,23,27.90
2009,07,30,15,24,27.90
2009,07,30,15,25,27.90
2009,07,30,15,26,27.80
2009,07,30,15,27,27.70
2009,07,30,15,28,27.70
2009,07,30,15,29,27.70
2009,07,30,15,30,27.90
2009,07,30,15,31,28.00
2009,07,30,15,32,28.20
2009,07,30,15,33,28.20
2009,07,30,15,34,28.30
2009,07,30,15,35,28.20
2009,07,30,15,36,28.30
2009,07,30,15,37,28.30
2009,07,30,15,38,28.20
2009,07,30,15,39,28.20
2009,07,30,15,40,28.10
2009,07,30,15,41,28.10
2009,07,30,15,42,28.10
2009,07,30,15,43,28.10
2009,07,30,15,44,28.10
2009,07,30,15,45,28.10
2009,07,30,15,46,28.00
2009,07,30,15,47,28.00
2009,07,30,15,48,28.00
2009,07,30,15,49,27.90
2009,07,30,15,50,27.90
2009,07,30,15,51,27.90
2009,07,30,15,52,27.90
2009,07,30,15,53,27.90
2009,07,30,15,54,27.90
2009,07,30,15,55,27.80
2009,07,30,15,56,27.80
2009,07,30,15,57,27.80
2009,07,30,15,58,27.90
2009,07,30,15,59,27.90
2009,07,30,16,00,27.80
2009,07,30,16,01,27.80
2009,07,30,16,02,27.80
2009,07,30,16,03,27.80
2009,07,30,16,04,27.80
2009,07,30,16,05,27.90
2009,07,30,16,06,28.00
2009,07,30,16,07,28.10
2009,07,30,16,08,28.10
2009,07,30,16,09,28.20
2009,07,30,16,10,28.20
2009,07,30,16,11,28.10
2009,07,30,16,12,28.10
2009,07,30,16,13,28.10
2009,07,30,16,14,28.10
2009,07,30,16,15,28.10
2009,07,30,16,16,28.10
2009,07,30,16,17,28.20
2009,07,30,16,18,28.20
2009,07,30,16,19,28.20
2009,07,30,16,20,28.20
2009,07,30,16,21,28.20
2009,07,30,16,22,28.20
2009,07,30,16,23,28.30
2009,07,30,16,24,28.30
2009,07,30,16,25,28.20
2009,07,30,16,26,28.20
2009,07,30,16,27,28.30
2009,07,30,16,28,28.40
2009,07,30,16,29,28.40
2009,07,30,16,30,28.30
2009,07,30,16,31,28.30
2009,07,30,16,32,28.30
2009,07,30,16,33,28.40
2009,07,30,16,34,28.40
2009,07,30,16,35,28.40
2009,07,30,16,36,28.40
2009,07,30,16,37,28.30
2009,07,30,16,38,28.20
2009,07,30,16,39,28.20
2009,07,30,16,40,28.20
2009,07,30,16,41,28.20
2009,07,30,16,42,28.30
2009,07,30,16,43,28.30
2009,07,30,16,44,28.30
2009,07,30,16,45,28.30
2009,07,30,16,46,28.30
2009,07,30,16,47,28.30
2009,07,30,16,48,28.20
2009,07,30,16,49,28.20
2009,07,30,16,50,28.20
2009,07,30,16,51,28.10
2009,07,30,16,52,28.10
2009,07,30,16,53,28.10
2009,07,30,16,54,28.10
2009,07,30,16,55,28.00
2009,07,30,16,56,28.10
2009,07,30,16,57,28.10
2009,07,30,16,58,28.10
2009,07,30,16,59,28.00
2009,07,30,17,00,28.00
2009,07,30,17,01,28.00
2009,07,30,17,02,27.90
2009,07,30,17,03,27.90
2009,07,30,17,04,27.90
2009,07,30,17,05,28.00
2009,07,30,17,06,28.00
2009,07,30,17,07,28.10
2009,07,30,17,08,28.10
2009,07,30,17,09,28.20
2009,07,30,17,10,28.20
2009,07,30,17,11,28.20
2009,07,30,17,12,28.20
2009,07,30,17,13,28.10
2009,07,30,17,14,28.10
2009,07,30,17,15,28.00
2009,07,30,17,16,27.90
2009,07,30,17,17,27.90
2009,07,30,17,18,27.80
2009,07,30,17,19,27.80
2009,07,30,17,20,27.80
2009,07,30,17,21,27.90